Time,TemperatureF,DewpointF,PressureIn,WindDirection,WindDirectionDegrees,WindSpeedMPH,WindSpeedGustMPH,Humidity,HourlyPrecipIn,Conditions,Clouds,dailyrainin,SoftwareType,DateUTC
2013-02-05 00:03:00,52.5,47.5,30.01,South,178,0.0,2.0,83,0.00,,,0.00,meteohub,2013-02-05 06:03:00,
2013-02-05 00:09:00,52.5,47.5,30.01,South,178,0.0,1.0,83,0.00,,,0.00,meteohub,2013-02-05 06:09:00,
2013-02-05 00:14:00,52.5,47.5,30.01,South,178,0.0,0.0,83,0.00,,,0.00,meteohub,2013-02-05 06:14:00,
2013-02-05 00:19:00,52.7,47.7,30.01,South,178,0.0,0.0,83,0.00,,,0.00,meteohub,2013-02-05 06:19:00,
2013-02-05 00:24:00,52.9,47.8,30.01,South,178,0.0,2.0,83,0.00,,,0.00,meteohub,2013-02-05 06:24:00,
2013-02-05 00:29:00,53.1,48.0,30.01,South,178,0.0,2.0,83,0.00,,,0.00,meteohub,2013-02-05 06:29:00,
2013-02-05 00:34:00,53.1,48.0,30.01,SE,139,2.0,2.0,83,0.00,,,0.00,meteohub,2013-02-05 06:34:00,
2013-02-05 00:39:00,53.2,48.2,30.01,SE,136,0.0,2.0,83,0.00,,,0.00,meteohub,2013-02-05 06:39:00,
2013-02-05 00:44:00,53.2,48.6,30.01,SE,136,0.0,2.0,84,0.00,,,0.00,meteohub,2013-02-05 06:44:00,
2013-02-05 00:49:00,53.2,48.6,30.01,SE,129,0.0,2.0,84,0.00,,,0.00,meteohub,2013-02-05 06:49:00,
2013-02-05 00:55:00,53.4,48.7,30.01,SE,127,1.0,3.0,84,0.00,,,0.00,meteohub,2013-02-05 06:55:00,
2013-02-05 01:00:00,53.4,49.1,30.01,SE,125,0.0,4.0,85,0.00,,,0.00,meteohub,2013-02-05 07:00:00,
2013-02-05 01:05:00,53.4,49.1,30.01,SE,125,0.0,4.0,85,0.00,,,0.00,meteohub,2013-02-05 07:05:00,
2013-02-05 01:10:00,53.2,48.9,30.01,ESE,120,3.0,3.0,85,0.00,,,0.00,meteohub,2013-02-05 07:10:00,
2013-02-05 01:15:00,53.2,48.9,30.01,SE,129,0.0,4.0,85,0.00,,,0.00,meteohub,2013-02-05 07:15:00,
2013-02-05 01:20:00,53.2,48.9,30.01,SSE,150,0.0,4.0,85,0.01,,,0.01,meteohub,2013-02-05 07:20:00,
2013-02-05 01:25:00,53.1,48.9,30.01,SE,143,2.0,4.0,86,0.01,,,0.01,meteohub,2013-02-05 07:25:00,
2013-02-05 01:30:00,53.1,48.9,30.01,SE,142,1.0,3.0,86,0.01,,,0.01,meteohub,2013-02-05 07:30:00,
2013-02-05 01:36:00,53.1,48.9,30.01,SE,142,0.0,3.0,86,0.01,,,0.01,meteohub,2013-02-05 07:36:00,
2013-02-05 01:41:00,53.1,49.3,30.01,SE,142,0.0,2.0,87,0.01,,,0.01,meteohub,2013-02-05 07:41:00,
2013-02-05 01:46:00,52.9,49.1,30.01,SE,142,1.0,2.0,87,0.01,,,0.01,meteohub,2013-02-05 07:46:00,
2013-02-05 01:51:00,52.9,49.5,30.00,SE,133,0.0,2.0,88,0.01,,,0.01,meteohub,2013-02-05 07:51:00,
2013-02-05 01:56:00,52.9,49.5,30.01,SE,124,0.0,3.0,88,0.01,,,0.01,meteohub,2013-02-05 07:56:00,
2013-02-05 02:01:00,52.7,49.3,30.01,SE,142,1.0,3.0,88,0.01,,,0.01,meteohub,2013-02-05 08:01:00,
2013-02-05 02:06:00,52.7,49.5,30.01,SSE,149,0.0,3.0,89,0.01,,,0.01,meteohub,2013-02-05 08:06:00,
2013-02-05 02:11:00,52.7,49.5,30.01,SSE,164,0.0,2.0,89,0.01,,,0.01,meteohub,2013-02-05 08:11:00,
2013-02-05 02:16:00,52.7,49.5,30.01,South,174,0.0,2.0,89,0.02,,,0.02,meteohub,2013-02-05 08:16:00,
2013-02-05 02:21:00,52.7,49.8,30.01,South,174,0.0,2.0,90,0.01,,,0.02,meteohub,2013-02-05 08:21:00,
2013-02-05 02:27:00,52.5,49.6,30.01,South,174,0.0,2.0,90,0.01,,,0.02,meteohub,2013-02-05 08:27:00,
2013-02-05 02:32:00,52.5,49.6,30.01,South,172,0.0,1.0,90,0.01,,,0.02,meteohub,2013-02-05 08:32:00,
2013-02-05 02:37:00,52.5,50.0,30.01,South,172,0.0,2.0,91,0.01,,,0.02,meteohub,2013-02-05 08:37:00,
2013-02-05 02:42:00,52.5,50.0,30.01,South,171,0.0,2.0,91,0.01,,,0.02,meteohub,2013-02-05 08:42:00,
2013-02-05 02:47:00,52.5,50.0,30.01,South,171,0.0,1.0,91,0.01,,,0.02,meteohub,2013-02-05 08:47:00,
2013-02-05 02:52:00,52.3,49.8,30.01,SE,133,1.0,1.0,91,0.02,,,0.03,meteohub,2013-02-05 08:52:00,
2013-02-05 02:57:00,52.3,49.8,30.01,SE,134,1.0,3.0,91,0.02,,,0.03,meteohub,2013-02-05 08:57:00,
2013-02-05 03:02:00,52.3,49.8,30.01,SE,134,0.0,3.0,91,0.02,,,0.03,meteohub,2013-02-05 09:02:00,
2013-02-05 03:07:00,52.3,49.8,30.01,SE,142,2.0,3.0,91,0.02,,,0.03,meteohub,2013-02-05 09:07:00,
2013-02-05 03:12:00,52.2,49.6,30.01,SSE,155,1.0,3.0,91,0.03,,,0.04,meteohub,2013-02-05 09:12:00,
2013-02-05 03:17:00,52.2,49.8,30.01,SE,126,0.0,3.0,92,0.02,,,0.04,meteohub,2013-02-05 09:17:00,
2013-02-05 03:22:00,52.3,50.0,30.01,SE,127,1.0,3.0,92,0.03,,,0.05,meteohub,2013-02-05 09:22:00,
2013-02-05 03:27:00,52.3,50.0,30.01,SE,141,0.0,3.0,92,0.03,,,0.05,meteohub,2013-02-05 09:27:00,
2013-02-05 03:32:00,52.3,50.0,30.01,SE,141,0.0,3.0,92,0.03,,,0.05,meteohub,2013-02-05 09:32:00,
2013-02-05 03:37:00,52.3,50.0,30.01,SE,141,0.0,3.0,92,0.03,,,0.05,meteohub,2013-02-05 09:37:00,
2013-02-05 03:42:00,52.3,50.0,30.01,SE,141,0.0,3.0,92,0.03,,,0.05,meteohub,2013-02-05 09:42:00,
2013-02-05 03:47:00,52.3,50.0,30.01,SE,141,1.0,1.0,92,0.03,,,0.05,meteohub,2013-02-05 09:47:00,
2013-02-05 03:52:00,52.3,50.4,30.00,SE,140,1.0,2.0,93,0.02,,,0.05,meteohub,2013-02-05 09:52:00,
2013-02-05 03:57:00,52.3,50.4,30.00,SE,142,0.0,2.0,93,0.02,,,0.05,meteohub,2013-02-05 09:57:00,
2013-02-05 04:02:00,52.3,50.4,30.00,SE,146,0.0,2.0,93,0.02,,,0.05,meteohub,2013-02-05 10:02:00,
2013-02-05 04:07:00,52.3,50.0,30.00,SE,145,1.0,2.0,92,0.01,,,0.05,meteohub,2013-02-05 10:07:00,
2013-02-05 04:12:00,52.2,49.8,30.00,SE,145,0.0,2.0,92,0.01,,,0.05,meteohub,2013-02-05 10:12:00,
2013-02-05 04:17:00,52.3,50.4,30.00,SE,146,1.0,2.0,93,0.01,,,0.05,meteohub,2013-02-05 10:17:00,
2013-02-05 04:22:00,52.2,50.2,30.00,SSE,147,0.0,2.0,93,0.00,,,0.05,meteohub,2013-02-05 10:22:00,
2013-02-05 04:27:00,52.2,50.2,30.00,SSE,147,0.0,2.0,93,0.00,,,0.05,meteohub,2013-02-05 10:27:00,
2013-02-05 04:32:00,52.2,50.2,30.01,SSE,160,1.0,2.0,93,0.01,,,0.06,meteohub,2013-02-05 10:32:00,
2013-02-05 04:37:00,52.3,50.4,30.00,South,180,0.0,2.0,93,0.01,,,0.06,meteohub,2013-02-05 10:37:00,
2013-02-05 04:42:00,52.3,50.4,30.01,South,183,0.0,2.0,93,0.01,,,0.06,meteohub,2013-02-05 10:42:00,
2013-02-05 04:47:00,52.3,50.4,30.01,South,179,2.0,3.0,93,0.01,,,0.06,meteohub,2013-02-05 10:47:00,
2013-02-05 04:52:00,52.5,50.5,30.01,South,179,1.0,5.0,93,0.01,,,0.06,meteohub,2013-02-05 10:52:00,
2013-02-05 04:57:00,52.7,50.4,30.01,South,177,0.0,5.0,92,0.01,,,0.06,meteohub,2013-02-05 10:57:00,
2013-02-05 05:02:00,52.7,50.4,30.01,South,177,0.0,5.0,92,0.01,,,0.06,meteohub,2013-02-05 11:02:00,
2013-02-05 05:07:00,52.7,50.7,30.01,South,176,0.0,2.0,93,0.01,,,0.06,meteohub,2013-02-05 11:07:00,
2013-02-05 05:12:00,52.7,50.7,30.02,South,177,0.0,1.0,93,0.01,,,0.06,meteohub,2013-02-05 11:12:00,
2013-02-05 05:17:00,52.5,50.5,30.01,South,177,0.0,1.0,93,0.01,,,0.06,meteohub,2013-02-05 11:17:00,
2013-02-05 05:22:00,52.5,50.5,30.01,South,177,1.0,0.0,93,0.02,,,0.07,meteohub,2013-02-05 11:22:00,
2013-02-05 05:27:00,52.5,50.9,30.01,South,177,0.0,1.0,94,0.01,,,0.07,meteohub,2013-02-05 11:27:00,
2013-02-05 05:32:00,52.5,50.9,30.02,South,177,0.0,1.0,94,0.01,,,0.07,meteohub,2013-02-05 11:32:00,
2013-02-05 05:37:00,52.5,50.9,30.02,South,177,0.0,1.0,94,0.01,,,0.07,meteohub,2013-02-05 11:37:00,
2013-02-05 05:42:00,52.5,50.9,30.01,South,177,0.0,1.0,94,0.01,,,0.07,meteohub,2013-02-05 11:42:00,
2013-02-05 05:47:00,52.5,50.9,30.02,South,177,0.0,2.0,94,0.01,,,0.07,meteohub,2013-02-05 11:47:00,
2013-02-05 05:52:00,52.5,50.9,30.02,South,177,0.0,2.0,94,0.01,,,0.07,meteohub,2013-02-05 11:52:00,
2013-02-05 05:57:00,52.7,51.1,30.02,South,176,0.0,1.0,94,0.01,,,0.07,meteohub,2013-02-05 11:57:00,
2013-02-05 06:02:00,52.7,50.7,30.03,South,177,0.0,1.0,93,0.01,,,0.07,meteohub,2013-02-05 12:02:00,
2013-02-05 06:07:00,52.7,51.1,30.03,South,177,0.0,1.0,94,0.01,,,0.07,meteohub,2013-02-05 12:07:00,
2013-02-05 06:12:00,52.9,51.3,30.03,South,176,0.0,0.0,94,0.01,,,0.07,meteohub,2013-02-05 12:12:00,
2013-02-05 06:17:00,52.9,51.3,30.03,South,177,0.0,0.0,94,0.00,,,0.07,meteohub,2013-02-05 12:17:00,
2013-02-05 06:22:00,52.7,51.1,30.03,South,176,0.0,0.0,94,0.00,,,0.07,meteohub,2013-02-05 12:22:00,
2013-02-05 06:27:00,52.9,51.3,30.03,South,177,0.0,1.0,94,0.00,,,0.07,meteohub,2013-02-05 12:27:00,
2013-02-05 06:32:00,52.9,51.3,30.03,South,176,0.0,1.0,94,0.00,,,0.07,meteohub,2013-02-05 12:32:00,
2013-02-05 06:37:00,52.9,51.3,30.03,South,176,0.0,1.0,94,0.00,,,0.07,meteohub,2013-02-05 12:37:00,
2013-02-05 06:42:00,52.9,51.3,30.03,South,177,0.0,1.0,94,0.00,,,0.07,meteohub,2013-02-05 12:42:00,
2013-02-05 06:47:00,52.9,51.3,30.04,South,176,0.0,1.0,94,0.00,,,0.07,meteohub,2013-02-05 12:47:00,
2013-02-05 06:52:00,52.9,51.3,30.04,South,177,0.0,1.0,94,0.00,,,0.07,meteohub,2013-02-05 12:52:00,
2013-02-05 06:57:00,52.9,51.3,30.04,South,177,0.0,0.0,94,0.00,,,0.07,meteohub,2013-02-05 12:57:00,
2013-02-05 07:02:00,53.1,51.4,30.04,South,175,0.0,0.0,94,0.00,,,0.07,meteohub,2013-02-05 13:02:00,
2013-02-05 07:07:00,53.1,51.4,30.04,South,176,0.0,0.0,94,0.00,,,0.07,meteohub,2013-02-05 13:07:00,
2013-02-05 07:12:00,53.1,51.4,30.04,South,177,0.0,0.0,94,0.00,,,0.07,meteohub,2013-02-05 13:12:00,
2013-02-05 07:17:00,53.2,51.6,30.04,South,177,0.0,0.0,94,0.00,,,0.07,meteohub,2013-02-05 13:17:00,
2013-02-05 07:22:00,53.2,51.8,30.04,South,176,0.0,0.0,95,0.00,,,0.07,meteohub,2013-02-05 13:22:00,
2013-02-05 07:27:00,53.2,51.6,30.05,South,176,0.0,0.0,94,0.00,,,0.07,meteohub,2013-02-05 13:27:00,
2013-02-05 07:32:00,53.4,51.8,30.05,South,177,0.0,2.0,94,0.00,,,0.07,meteohub,2013-02-05 13:32:00,
2013-02-05 07:38:00,53.6,52.0,30.05,South,179,0.0,2.0,94,0.00,,,0.07,meteohub,2013-02-05 13:38:00,
2013-02-05 07:43:00,53.8,51.8,30.05,South,179,0.0,2.0,93,0.00,,,0.07,meteohub,2013-02-05 13:43:00,
2013-02-05 07:48:00,53.8,51.8,30.05,South,179,0.0,2.0,93,0.00,,,0.07,meteohub,2013-02-05 13:48:00,
2013-02-05 07:53:00,54.0,52.0,30.05,South,179,0.0,2.0,93,0.00,,,0.07,meteohub,2013-02-05 13:53:00,
2013-02-05 07:58:00,54.1,52.2,30.05,SSE,150,0.0,2.0,93,0.00,,,0.07,meteohub,2013-02-05 13:58:00,
2013-02-05 08:03:00,54.1,52.2,30.05,South,174,0.0,2.0,93,0.00,,,0.07,meteohub,2013-02-05 14:03:00,
2013-02-05 08:08:00,54.3,52.3,30.05,SSE,153,0.0,2.0,93,0.00,,,0.07,meteohub,2013-02-05 14:08:00,
2013-02-05 08:13:00,54.5,52.5,30.05,SE,135,0.0,4.0,93,0.00,,,0.07,meteohub,2013-02-05 14:13:00,
2013-02-05 08:18:00,54.7,52.7,30.05,SE,135,0.0,4.0,93,0.00,,,0.07,meteohub,2013-02-05 14:18:00,
2013-02-05 08:23:00,54.7,52.7,30.05,SE,135,0.0,4.0,93,0.00,,,0.07,meteohub,2013-02-05 14:23:00,
2013-02-05 08:29:00,54.7,52.3,30.05,SE,135,0.0,2.0,92,0.00,,,0.07,meteohub,2013-02-05 14:29:00,
2013-02-05 08:34:00,54.9,52.5,30.05,SE,135,0.0,1.0,92,0.00,,,0.07,meteohub,2013-02-05 14:34:00,
2013-02-05 08:39:00,54.9,52.5,30.05,SE,135,1.0,2.0,92,0.00,,,0.07,meteohub,2013-02-05 14:39:00,
2013-02-05 08:44:00,55.0,52.7,30.05,SE,136,0.0,2.0,92,0.00,,,0.07,meteohub,2013-02-05 14:44:00,
2013-02-05 08:49:00,55.0,52.7,30.05,SE,130,3.0,3.0,92,0.00,,,0.07,meteohub,2013-02-05 14:49:00,
2013-02-05 08:54:00,55.0,52.7,30.06,SE,134,2.0,4.0,92,0.00,,,0.07,meteohub,2013-02-05 14:54:00,
2013-02-05 08:59:00,55.0,52.7,30.06,SE,132,0.0,4.0,92,0.00,,,0.07,meteohub,2013-02-05 14:59:00,
2013-02-05 09:04:00,55.0,52.7,30.06,ESE,123,0.0,5.0,92,0.00,,,0.07,meteohub,2013-02-05 15:04:00,
2013-02-05 09:09:00,55.2,52.9,30.06,ESE,123,0.0,5.0,92,0.00,,,0.07,meteohub,2013-02-05 15:09:00,
2013-02-05 09:14:00,55.2,52.7,30.06,SSE,166,0.0,5.0,91,0.00,,,0.07,meteohub,2013-02-05 15:14:00,
2013-02-05 09:20:00,55.4,52.9,30.06,SE,132,0.0,3.0,91,0.00,,,0.07,meteohub,2013-02-05 15:20:00,
2013-02-05 09:25:00,55.6,53.1,30.06,SE,134,1.0,3.0,91,0.00,,,0.07,meteohub,2013-02-05 15:25:00,
2013-02-05 09:30:00,55.6,53.1,30.06,SE,135,0.0,3.0,91,0.00,,,0.07,meteohub,2013-02-05 15:30:00,
2013-02-05 09:35:00,55.8,53.2,30.06,SE,134,0.0,3.0,91,0.00,,,0.07,meteohub,2013-02-05 15:35:00,
2013-02-05 09:40:00,55.9,53.4,30.06,SE,131,1.0,2.0,91,0.00,,,0.07,meteohub,2013-02-05 15:40:00,
2013-02-05 09:45:00,56.5,54.0,30.06,ESE,116,1.0,2.0,91,0.00,,,0.07,meteohub,2013-02-05 15:45:00,
2013-02-05 09:50:00,56.7,53.8,30.06,East,86,2.0,2.0,90,0.00,,,0.07,meteohub,2013-02-05 15:50:00,
2013-02-05 09:55:00,57.0,54.1,30.06,East,86,2.0,3.0,90,0.00,,,0.07,meteohub,2013-02-05 15:55:00,
2013-02-05 10:00:00,57.4,54.5,30.07,ESE,123,1.0,3.0,90,0.00,,,0.07,meteohub,2013-02-05 16:00:00,
2013-02-05 10:05:00,57.4,54.1,30.07,SE,146,1.0,3.0,89,0.00,,,0.07,meteohub,2013-02-05 16:05:00,
2013-02-05 10:11:00,57.7,54.5,30.07,East,93,0.0,3.0,89,0.00,,,0.07,meteohub,2013-02-05 16:11:00,
2013-02-05 10:16:00,57.7,54.1,30.07,East,93,1.0,3.0,88,0.00,,,0.07,meteohub,2013-02-05 16:16:00,
2013-02-05 10:21:00,57.7,54.5,30.07,East,93,2.0,2.0,89,0.00,,,0.07,meteohub,2013-02-05 16:21:00,
2013-02-05 10:26:00,57.9,54.7,30.07,East,88,0.0,3.0,89,0.00,,,0.07,meteohub,2013-02-05 16:26:00,
2013-02-05 10:31:00,58.3,55.0,30.06,East,88,0.0,3.0,89,0.00,,,0.07,meteohub,2013-02-05 16:31:00,
2013-02-05 10:36:00,58.6,55.0,30.06,East,82,2.0,3.0,88,0.00,,,0.07,meteohub,2013-02-05 16:36:00,
2013-02-05 10:41:00,58.8,55.2,30.06,East,95,2.0,3.0,88,0.00,,,0.07,meteohub,2013-02-05 16:41:00,
2013-02-05 10:46:00,59.0,55.2,30.06,East,95,0.0,3.0,87,0.00,,,0.07,meteohub,2013-02-05 16:46:00,
2013-02-05 10:52:00,59.4,55.8,30.06,East,95,1.0,3.0,88,0.00,,,0.07,meteohub,2013-02-05 16:52:00,
2013-02-05 10:57:00,59.4,55.2,30.06,East,96,2.0,3.0,86,0.00,,,0.07,meteohub,2013-02-05 16:57:00,
2013-02-05 11:02:00,59.5,55.4,30.06,East,98,2.0,5.0,86,0.00,,,0.07,meteohub,2013-02-05 17:02:00,
2013-02-05 11:07:00,59.7,55.6,30.06,ESE,112,2.0,5.0,86,0.00,,,0.07,meteohub,2013-02-05 17:07:00,
2013-02-05 11:12:00,60.1,55.9,30.06,SE,137,0.0,5.0,86,0.00,,,0.07,meteohub,2013-02-05 17:12:00,
2013-02-05 11:17:00,60.4,55.9,30.06,East,83,2.0,5.0,85,0.00,,,0.07,meteohub,2013-02-05 17:17:00,
2013-02-05 11:22:00,60.8,55.9,30.05,East,93,1.0,5.0,84,0.00,,,0.07,meteohub,2013-02-05 17:22:00,
2013-02-05 11:27:00,61.2,56.3,30.05,East,83,5.0,5.0,84,0.00,,,0.07,meteohub,2013-02-05 17:27:00,
2013-02-05 11:33:00,61.2,55.9,30.05,ESE,108,0.0,6.0,83,0.00,,,0.07,meteohub,2013-02-05 17:33:00,
2013-02-05 11:38:00,61.3,55.8,30.05,ESE,123,1.0,6.0,82,0.00,,,0.07,meteohub,2013-02-05 17:38:00,
2013-02-05 11:43:00,61.5,55.9,30.05,East,90,1.0,6.0,82,0.00,,,0.07,meteohub,2013-02-05 17:43:00,
2013-02-05 11:48:00,61.7,56.1,30.05,East,95,1.0,5.0,82,0.00,,,0.07,meteohub,2013-02-05 17:48:00,
2013-02-05 11:53:00,61.9,55.9,30.04,East,91,1.0,5.0,81,0.00,,,0.07,meteohub,2013-02-05 17:53:00,
2013-02-05 11:58:00,61.9,56.3,30.04,SE,140,0.0,7.0,82,0.00,,,0.07,meteohub,2013-02-05 17:58:00,
2013-02-05 12:03:00,62.2,56.3,30.04,East,101,2.0,7.0,81,0.00,,,0.07,meteohub,2013-02-05 18:03:00,
2013-02-05 12:08:00,62.8,56.5,30.04,SSE,152,3.0,7.0,80,0.00,,,0.07,meteohub,2013-02-05 18:08:00,
2013-02-05 12:13:00,63.0,56.7,30.04,East,87,2.0,5.0,80,0.00,,,0.07,meteohub,2013-02-05 18:13:00,
2013-02-05 12:19:00,63.0,57.0,30.03,SE,124,1.0,6.0,81,0.00,,,0.07,meteohub,2013-02-05 18:19:00,
2013-02-05 12:24:00,63.0,56.7,30.03,East,88,6.0,6.0,80,0.00,,,0.07,meteohub,2013-02-05 18:24:00,
2013-02-05 12:29:00,62.8,56.8,30.03,ESE,113,3.0,5.0,81,0.00,,,0.07,meteohub,2013-02-05 18:29:00,
2013-02-05 12:34:00,63.1,56.8,30.03,ESE,110,4.0,6.0,80,0.00,,,0.07,meteohub,2013-02-05 18:34:00,
2013-02-05 12:39:00,63.7,57.4,30.03,SW,225,4.0,7.0,80,0.00,,,0.07,meteohub,2013-02-05 18:39:00,
2013-02-05 12:44:00,63.9,56.8,30.02,SE,143,2.0,7.0,78,0.00,,,0.07,meteohub,2013-02-05 18:44:00,
2013-02-05 12:49:00,64.2,57.2,30.02,SE,137,2.0,7.0,78,0.00,,,0.07,meteohub,2013-02-05 18:49:00,
2013-02-05 12:54:00,64.4,57.4,30.02,SW,225,2.0,6.0,78,0.00,,,0.07,meteohub,2013-02-05 18:54:00,
2013-02-05 13:00:00,64.2,57.2,30.02,SW,223,1.0,6.0,78,0.00,,,0.07,meteohub,2013-02-05 19:00:00,
2013-02-05 13:05:00,64.2,57.2,30.02,SSE,150,0.0,3.0,78,0.00,,,0.07,meteohub,2013-02-05 19:05:00,
2013-02-05 13:10:00,64.2,57.2,30.02,SE,128,2.0,7.0,78,0.00,,,0.07,meteohub,2013-02-05 19:10:00,
2013-02-05 13:15:00,64.2,57.2,30.02,SE,127,1.0,7.0,78,0.00,,,0.07,meteohub,2013-02-05 19:15:00,
2013-02-05 13:20:00,64.2,57.6,30.01,SE,125,0.0,7.0,79,0.00,,,0.07,meteohub,2013-02-05 19:20:00,
2013-02-05 13:25:00,64.0,57.4,30.01,South,186,2.0,5.0,79,0.00,,,0.07,meteohub,2013-02-05 19:25:00,
2013-02-05 13:30:00,64.0,57.4,30.01,WSW,243,4.0,5.0,79,0.00,,,0.07,meteohub,2013-02-05 19:30:00,
2013-02-05 13:36:00,63.9,57.2,30.02,SW,222,2.0,5.0,79,0.00,,,0.07,meteohub,2013-02-05 19:36:00,
2013-02-05 13:41:00,63.9,57.2,30.01,SW,224,2.0,5.0,79,0.00,,,0.07,meteohub,2013-02-05 19:41:00,
2013-02-05 13:46:00,63.9,57.6,30.01,SE,139,1.0,4.0,80,0.00,,,0.07,meteohub,2013-02-05 19:46:00,
2013-02-05 13:51:00,63.5,57.9,30.01,WSW,252,1.0,4.0,82,0.00,,,0.07,meteohub,2013-02-05 19:51:00,
2013-02-05 13:56:00,63.0,58.1,30.01,WSW,252,0.0,4.0,84,0.00,,,0.07,meteohub,2013-02-05 19:56:00,
2013-02-05 14:01:00,62.6,58.6,30.01,WSW,252,0.0,3.0,87,0.01,,,0.08,meteohub,2013-02-05 20:01:00,
2013-02-05 14:06:00,62.2,58.6,30.01,WSW,252,0.0,3.0,88,0.01,,,0.08,meteohub,2013-02-05 20:06:00,
2013-02-05 14:12:00,62.1,58.5,30.01,WSW,252,0.0,1.0,88,0.01,,,0.08,meteohub,2013-02-05 20:12:00,
2013-02-05 14:17:00,61.7,58.8,30.01,WSW,252,1.0,0.0,90,0.01,,,0.08,meteohub,2013-02-05 20:17:00,
2013-02-05 14:22:00,61.5,58.6,30.01,WSW,252,1.0,2.0,90,0.01,,,0.08,meteohub,2013-02-05 20:22:00,
2013-02-05 14:27:00,61.5,58.6,30.01,WSW,252,1.0,2.0,90,0.01,,,0.08,meteohub,2013-02-05 20:27:00,
2013-02-05 14:32:00,61.3,57.7,30.00,WSW,252,0.0,2.0,88,0.01,,,0.08,meteohub,2013-02-05 20:32:00,
2013-02-05 14:37:00,61.3,57.7,30.01,WSW,252,0.0,2.0,88,0.01,,,0.08,meteohub,2013-02-05 20:37:00,
2013-02-05 14:42:00,61.5,57.9,30.01,WSW,251,0.0,2.0,88,0.01,,,0.08,meteohub,2013-02-05 20:42:00,
2013-02-05 14:47:00,61.7,58.5,30.01,WSW,252,0.0,1.0,89,0.01,,,0.08,meteohub,2013-02-05 20:47:00,
2013-02-05 14:52:00,62.1,58.5,30.00,WSW,251,0.0,1.0,88,0.01,,,0.08,meteohub,2013-02-05 20:52:00,
2013-02-05 14:57:00,62.2,58.6,30.00,North,359,0.0,1.0,88,0.00,,,0.08,meteohub,2013-02-05 20:57:00,
2013-02-05 15:02:00,62.2,58.6,30.00,WSW,252,0.0,0.0,88,0.00,,,0.08,meteohub,2013-02-05 21:02:00,
2013-02-05 15:07:00,62.2,58.6,30.00,WSW,251,0.0,1.0,88,0.00,,,0.08,meteohub,2013-02-05 21:07:00,
2013-02-05 15:12:00,62.1,58.8,30.00,WSW,251,0.0,1.0,89,0.00,,,0.08,meteohub,2013-02-05 21:12:00,
2013-02-05 15:17:00,62.1,58.5,30.00,SE,137,1.0,1.0,88,0.00,,,0.08,meteohub,2013-02-05 21:17:00,
2013-02-05 15:23:00,61.9,58.6,30.00,ESE,103,0.0,2.0,89,0.00,,,0.08,meteohub,2013-02-05 21:23:00,
2013-02-05 15:28:00,61.9,59.0,30.00,ESE,103,0.0,2.0,90,0.00,,,0.08,meteohub,2013-02-05 21:28:00,
2013-02-05 15:33:00,61.7,58.8,30.00,ESE,103,0.0,2.0,90,0.00,,,0.08,meteohub,2013-02-05 21:33:00,
2013-02-05 15:38:00,61.5,58.6,30.00,ESE,102,0.0,2.0,90,0.00,,,0.08,meteohub,2013-02-05 21:38:00,
2013-02-05 15:43:00,61.5,58.6,30.00,NE,54,0.0,2.0,90,0.00,,,0.08,meteohub,2013-02-05 21:43:00,
2013-02-05 15:48:00,61.3,58.5,30.00,NE,54,0.0,3.0,90,0.00,,,0.08,meteohub,2013-02-05 21:48:00,
2013-02-05 15:53:00,61.3,58.5,30.00,NE,54,1.0,3.0,90,0.00,,,0.08,meteohub,2013-02-05 21:53:00,
2013-02-05 15:59:00,61.3,58.6,30.00,NE,55,0.0,3.0,91,0.00,,,0.08,meteohub,2013-02-05 21:59:00,
2013-02-05 16:04:00,61.3,58.5,30.00,NE,55,0.0,2.0,90,0.00,,,0.08,meteohub,2013-02-05 22:04:00,
2013-02-05 16:09:00,61.3,58.5,30.00,NE,54,0.0,2.0,90,0.00,,,0.08,meteohub,2013-02-05 22:09:00,
2013-02-05 16:14:00,61.3,58.5,30.00,NE,54,1.0,1.0,90,0.00,,,0.08,meteohub,2013-02-05 22:14:00,
2013-02-05 16:19:00,61.3,58.5,30.00,NE,54,0.0,2.0,90,0.00,,,0.08,meteohub,2013-02-05 22:19:00,
2013-02-05 16:24:00,61.2,58.3,30.00,NE,54,0.0,2.0,90,0.00,,,0.08,meteohub,2013-02-05 22:24:00,
2013-02-05 16:29:00,61.2,58.5,30.00,NE,54,0.0,2.0,91,0.00,,,0.08,meteohub,2013-02-05 22:29:00,
2013-02-05 16:34:00,61.2,58.5,30.00,NE,54,0.0,1.0,91,0.00,,,0.08,meteohub,2013-02-05 22:34:00,
2013-02-05 16:40:00,61.2,58.5,30.00,ENE,57,0.0,1.0,91,0.00,,,0.08,meteohub,2013-02-05 22:40:00,
2013-02-05 16:45:00,61.2,58.3,29.99,ENE,57,0.0,2.0,90,0.00,,,0.08,meteohub,2013-02-05 22:45:00,
2013-02-05 16:50:00,61.2,58.5,30.00,East,87,0.0,2.0,91,0.00,,,0.08,meteohub,2013-02-05 22:50:00,
2013-02-05 16:55:00,61.0,58.3,30.00,East,86,0.0,2.0,91,0.00,,,0.08,meteohub,2013-02-05 22:55:00,
2013-02-05 17:00:00,61.0,58.3,30.00,East,86,0.0,2.0,91,0.00,,,0.08,meteohub,2013-02-05 23:00:00,
2013-02-05 17:05:00,61.0,58.3,30.00,East,86,0.0,2.0,91,0.00,,,0.08,meteohub,2013-02-05 23:05:00,
2013-02-05 17:10:00,61.0,58.3,30.00,East,87,0.0,2.0,91,0.00,,,0.08,meteohub,2013-02-05 23:10:00,
2013-02-05 17:15:00,60.8,58.1,30.00,East,85,0.0,1.0,91,0.00,,,0.08,meteohub,2013-02-05 23:15:00,
2013-02-05 17:20:00,60.8,58.1,30.00,East,87,0.0,1.0,91,0.00,,,0.08,meteohub,2013-02-05 23:20:00,
2013-02-05 17:26:00,60.8,58.1,30.00,East,86,0.0,1.0,91,0.00,,,0.08,meteohub,2013-02-05 23:26:00,
2013-02-05 17:31:00,60.6,58.3,30.00,East,86,0.0,1.0,92,0.00,,,0.08,meteohub,2013-02-05 23:31:00,
2013-02-05 17:36:00,60.6,58.3,30.00,East,87,0.0,1.0,92,0.00,,,0.08,meteohub,2013-02-05 23:36:00,
2013-02-05 17:41:00,60.6,58.3,30.00,East,87,0.0,1.0,92,0.00,,,0.08,meteohub,2013-02-05 23:41:00,
2013-02-05 17:46:00,60.6,58.3,30.00,East,87,0.0,1.0,92,0.00,,,0.08,meteohub,2013-02-05 23:46:00,
2013-02-05 17:51:00,60.6,57.9,30.00,SE,127,2.0,2.0,91,0.00,,,0.08,meteohub,2013-02-05 23:51:00,
2013-02-05 17:57:00,60.6,57.9,30.00,SE,125,4.0,4.0,91,0.00,,,0.08,meteohub,2013-02-05 23:57:00,
2013-02-05 18:02:00,60.8,58.1,30.00,SE,125,1.0,5.0,91,0.00,,,0.08,meteohub,2013-02-06 00:02:00,
2013-02-05 18:07:00,61.0,58.3,30.00,SE,131,1.0,5.0,91,0.00,,,0.00,meteohub,2013-02-06 00:07:00,
2013-02-05 18:12:00,60.8,57.9,30.00,ESE,114,1.0,6.0,90,0.00,,,0.00,meteohub,2013-02-06 00:12:00,
2013-02-05 18:17:00,60.6,57.7,30.00,ESE,120,2.0,8.0,90,0.00,,,0.00,meteohub,2013-02-06 00:17:00,
2013-02-05 18:22:00,60.4,57.6,30.00,SE,139,0.0,8.0,90,0.00,,,0.00,meteohub,2013-02-06 00:22:00,
2013-02-05 18:27:00,60.3,57.4,30.00,SE,137,3.0,8.0,90,0.00,,,0.00,meteohub,2013-02-06 00:27:00,
2013-02-05 18:32:00,60.1,57.4,30.01,SE,125,0.0,8.0,91,0.00,,,0.00,meteohub,2013-02-06 00:32:00,
2013-02-05 18:37:00,59.9,57.2,30.01,East,86,5.0,8.0,91,0.00,,,0.00,meteohub,2013-02-06 00:37:00,
2013-02-05 18:42:00,59.7,57.0,30.01,ESE,123,3.0,8.0,91,0.00,,,0.00,meteohub,2013-02-06 00:42:00,
2013-02-05 18:47:00,59.5,56.8,30.01,SE,125,0.0,7.0,91,0.00,,,0.00,meteohub,2013-02-06 00:47:00,
2013-02-05 18:52:00,59.4,56.7,30.01,East,81,1.0,7.0,91,0.00,,,0.00,meteohub,2013-02-06 00:52:00,
2013-02-05 18:57:00,59.2,56.5,30.02,East,80,0.0,7.0,91,0.00,,,0.00,meteohub,2013-02-06 00:57:00,
2013-02-05 19:03:00,59.0,56.7,30.02,East,81,0.0,5.0,92,0.00,,,0.00,meteohub,2013-02-06 01:03:00,
2013-02-05 19:08:00,58.8,56.5,30.02,East,80,0.0,2.0,92,0.00,,,0.00,meteohub,2013-02-06 01:08:00,
2013-02-05 19:13:00,58.6,56.7,30.02,East,80,0.0,2.0,93,0.00,,,0.00,meteohub,2013-02-06 01:13:00,
2013-02-05 19:18:00,58.5,56.5,30.02,East,81,0.0,1.0,93,0.00,,,0.00,meteohub,2013-02-06 01:18:00,
2013-02-05 19:23:00,58.3,56.3,30.02,East,81,0.0,2.0,93,0.00,,,0.00,meteohub,2013-02-06 01:23:00,
2013-02-05 19:28:00,58.1,56.1,30.01,East,81,0.0,2.0,93,0.00,,,0.00,meteohub,2013-02-06 01:28:00,
2013-02-05 19:34:00,57.9,56.1,30.01,East,81,1.0,2.0,94,0.00,,,0.00,meteohub,2013-02-06 01:34:00,
2013-02-05 19:39:00,57.7,55.9,30.02,East,81,1.0,2.0,94,0.00,,,0.00,meteohub,2013-02-06 01:39:00,
2013-02-05 19:44:00,57.6,55.6,30.03,East,81,0.0,2.0,93,0.00,,,0.00,meteohub,2013-02-06 01:44:00,
2013-02-05 19:49:00,57.4,55.6,30.03,East,81,0.0,2.0,94,0.00,,,0.00,meteohub,2013-02-06 01:49:00,
2013-02-05 19:54:00,57.4,55.6,30.03,East,81,0.0,2.0,94,0.00,,,0.00,meteohub,2013-02-06 01:54:00,
2013-02-05 19:59:00,57.2,55.8,30.04,East,81,0.0,2.0,95,0.00,,,0.00,meteohub,2013-02-06 01:59:00,
2013-02-05 20:04:00,57.2,55.8,30.04,East,81,0.0,2.0,95,0.00,,,0.00,meteohub,2013-02-06 02:04:00,
2013-02-05 20:10:00,57.2,55.8,30.04,East,81,0.0,2.0,95,0.00,,,0.00,meteohub,2013-02-06 02:10:00,
2013-02-05 20:15:00,57.0,55.6,30.04,East,81,0.0,1.0,95,0.00,,,0.00,meteohub,2013-02-06 02:15:00,
2013-02-05 20:20:00,57.0,55.6,30.04,East,81,0.0,0.0,95,0.00,,,0.00,meteohub,2013-02-06 02:20:00,
2013-02-05 20:25:00,56.8,55.4,30.04,East,81,0.0,0.0,95,0.00,,,0.00,meteohub,2013-02-06 02:25:00,
2013-02-05 20:31:00,57.0,55.6,30.04,East,81,0.0,1.0,95,0.00,,,0.00,meteohub,2013-02-06 02:31:00,
2013-02-05 20:36:00,57.0,55.6,30.04,East,81,0.0,1.0,95,0.00,,,0.00,meteohub,2013-02-06 02:36:00,
2013-02-05 20:41:00,56.8,55.4,30.04,East,93,0.0,2.0,95,0.00,,,0.00,meteohub,2013-02-06 02:41:00,
2013-02-05 20:46:00,57.0,55.6,30.04,SE,133,1.0,3.0,95,0.00,,,0.00,meteohub,2013-02-06 02:46:00,
2013-02-05 20:51:00,57.0,55.6,30.04,SE,130,1.0,3.0,95,0.00,,,0.00,meteohub,2013-02-06 02:51:00,
2013-02-05 20:56:00,57.0,55.6,30.04,SE,129,0.0,3.0,95,0.00,,,0.00,meteohub,2013-02-06 02:56:00,
2013-02-05 21:01:00,57.0,55.6,30.04,ESE,122,0.0,3.0,95,0.00,,,0.00,meteohub,2013-02-06 03:01:00,
2013-02-05 21:06:00,57.0,55.6,30.04,ESE,121,0.0,3.0,95,0.00,,,0.00,meteohub,2013-02-06 03:06:00,
2013-02-05 21:12:00,57.0,55.6,30.04,ESE,113,1.0,3.0,95,0.00,,,0.00,meteohub,2013-02-06 03:12:00,
2013-02-05 21:17:00,57.0,55.6,30.05,ESE,113,0.0,3.0,95,0.00,,,0.00,meteohub,2013-02-06 03:17:00,
2013-02-05 21:22:00,57.0,55.9,30.05,ESE,114,0.0,2.0,96,0.00,,,0.00,meteohub,2013-02-06 03:22:00,
2013-02-05 21:27:00,57.0,55.6,30.05,ENE,77,1.0,2.0,95,0.00,,,0.00,meteohub,2013-02-06 03:27:00,
2013-02-05 21:32:00,57.0,55.6,30.05,East,101,2.0,3.0,95,0.00,,,0.00,meteohub,2013-02-06 03:32:00,
2013-02-05 21:37:00,57.0,55.6,30.05,East,91,2.0,3.0,95,0.00,,,0.00,meteohub,2013-02-06 03:37:00,
2013-02-05 21:42:00,56.8,55.4,30.05,East,91,0.0,5.0,95,0.00,,,0.00,meteohub,2013-02-06 03:42:00,
2013-02-05 21:47:00,56.8,55.4,30.05,East,91,0.0,5.0,95,0.00,,,0.00,meteohub,2013-02-06 03:47:00,
2013-02-05 21:52:00,56.8,55.8,30.05,East,89,3.0,5.0,96,0.00,,,0.00,meteohub,2013-02-06 03:52:00,
2013-02-05 21:57:00,56.8,55.8,30.05,East,92,1.0,5.0,96,0.00,,,0.00,meteohub,2013-02-06 03:57:00,
2013-02-05 22:02:00,56.8,55.8,30.05,SE,135,0.0,5.0,96,0.00,,,0.00,meteohub,2013-02-06 04:02:00,
2013-02-05 22:07:00,56.8,55.8,30.05,East,97,0.0,5.0,96,0.00,,,0.00,meteohub,2013-02-06 04:07:00,
2013-02-05 22:12:00,56.7,55.6,30.05,East,87,2.0,5.0,96,0.00,,,0.00,meteohub,2013-02-06 04:12:00,
2013-02-05 22:17:00,56.5,55.4,30.05,ESE,118,0.0,6.0,96,0.00,,,0.00,meteohub,2013-02-06 04:17:00,
2013-02-05 22:22:00,56.3,55.2,30.05,ESE,123,0.0,6.0,96,0.00,,,0.00,meteohub,2013-02-06 04:22:00,
2013-02-05 22:27:00,56.5,55.4,30.05,ESE,122,0.0,6.0,96,0.00,,,0.00,meteohub,2013-02-06 04:27:00,
2013-02-05 22:32:00,56.5,55.4,30.06,ENE,77,0.0,3.0,96,0.00,,,0.00,meteohub,2013-02-06 04:32:00,
2013-02-05 22:37:00,56.3,55.2,30.06,East,91,0.0,4.0,96,0.00,,,0.00,meteohub,2013-02-06 04:37:00,
2013-02-05 22:43:00,56.3,55.2,30.06,East,91,0.0,5.0,96,0.00,,,0.00,meteohub,2013-02-06 04:43:00,
2013-02-05 22:48:00,56.1,55.0,30.06,East,91,1.0,5.0,96,0.00,,,0.00,meteohub,2013-02-06 04:48:00,
2013-02-05 22:53:00,56.3,55.2,30.06,East,91,2.0,5.0,96,0.00,,,0.00,meteohub,2013-02-06 04:53:00,
2013-02-05 22:58:00,56.5,55.6,30.06,East,91,0.0,3.0,97,0.00,,,0.00,meteohub,2013-02-06 04:58:00,
2013-02-05 23:00:00,56.5,55.6,30.06,East,92,0.0,3.0,97,0.00,,,0.00,meteohub,2013-02-06 05:00:00,
2013-02-05 23:01:00,56.5,55.6,30.06,East,92,0.0,3.0,97,0.00,,,0.00,meteohub,2013-02-06 05:01:00,
2013-02-05 23:02:00,56.5,55.6,30.06,East,91,0.0,3.0,97,0.00,,,0.00,meteohub,2013-02-06 05:02:00,
2013-02-05 23:07:00,56.5,55.6,30.05,ESE,107,0.0,3.0,97,0.00,,,0.00,meteohub,2013-02-06 05:07:00,
2013-02-05 23:12:00,56.3,55.4,30.05,ESE,107,2.0,2.0,97,0.00,,,0.00,meteohub,2013-02-06 05:12:00,
2013-02-05 23:17:00,56.5,55.6,30.05,ESE,123,2.0,3.0,97,0.00,,,0.00,meteohub,2013-02-06 05:17:00,
2013-02-05 23:22:00,56.3,55.4,30.05,ESE,114,1.0,4.0,97,0.00,,,0.00,meteohub,2013-02-06 05:22:00,
2013-02-05 23:27:00,56.1,55.2,30.05,East,92,0.0,4.0,97,0.00,,,0.00,meteohub,2013-02-06 05:27:00,
2013-02-05 23:32:00,56.1,55.2,30.05,SE,129,0.0,4.0,97,0.00,,,0.00,meteohub,2013-02-06 05:32:00,
2013-02-05 23:37:00,56.1,55.0,30.05,SE,129,0.0,4.0,96,0.00,,,0.00,meteohub,2013-02-06 05:37:00,
2013-02-05 23:42:00,55.9,54.9,30.05,SE,129,0.0,3.0,96,0.00,,,0.00,meteohub,2013-02-06 05:42:00,
2013-02-05 23:47:00,55.9,55.0,30.05,SE,129,0.0,2.0,97,0.00,,,0.00,meteohub,2013-02-06 05:47:00,
2013-02-05 23:52:00,55.9,55.0,30.05,SE,129,0.0,1.0,97,0.00,,,0.00,meteohub,2013-02-06 05:52:00,
2013-02-05 23:57:00,55.9,55.0,30.05,SE,129,0.0,1.0,97,0.00,,,0.00,meteohub,2013-02-06 05:57:00,